Location: Tierz
(42.1336°N, 0.3549°W)
Time: 23:31:43
(UTC+00:00)

FengYun 1-2 T - Pass Details

Date: 29 October 2020
Orbit: 846 x 882 km, 98.7° (Epoch: 05 December)

Event Time Altitude Azimuth Distance (km) Brightness Sun altitude
Rises 17:48:39 0° 166° (SSE) 3,467 7.3 -9.8°
Reaches altitude 10° 17:51:01 10° 166° (SSE) 2,531 6.6 -10.3°
Maximum altitude 17:56:41 86° 256° (WSW) 887 4.4 -11.3°
Drops below altitude 10° 18:02:21 10° 345° (NNW) 2,534 6.8 -12.4°
Sets 18:04:44 0° 346° (NNW) 3,472 7.5 -12.8°
